Location: Bonac
(42.8765°N, 0.9753°E)
Time: 16:03:22
(UTC+00:00)

Cosmos 1703 - Pass Details

Date: 12 January 2026
Orbit: 413 x 424 km, 82.5° (Epoch: 18 February)

Event Time Altitude Azimuth Distance (km) Brightness Sun altitude
Rises 17:54:52 0° 177° (S) 2,399 6.8 -12.8°
Reaches altitude 10° 17:56:56 10° 172° (S) 1,536 5.7 -13.1°
Maximum altitude 18:00:12 53° 95° (E) 541 2.9 -13.7°
Enters shadow 18:02:58 14° 20° (NNE) 1,334 4.9 -14.2°
